Weather History for Oklahoma City / Page Muni, OK

Change the Weather History Date:

Sunday, March 2, 2014

  Actual Average (KOKC) Record (KOKC)
Temperature  
Mean Temperature 12 °F 48 °F  
Max Temperature 17 °F 59 °F 88 °F (1904)
Min Temperature 6 °F 37 °F 6 °F (1922)
Degree Days  
Heating Degree Days 54 17  
Month to date heating degree days 34  
Since 1 July heating degree days 2784  
Cooling Degree Days 0 0  
Month to date cooling degree days 0  
Year to date cooling degree days 1  
Moisture  
Dew Point 8 °F    
Average Humidity 91    
Maximum Humidity 100    
Minimum Humidity 85    
Precipitation  
Precipitation 2.89 in 0.09 in 2.04 in (1988)
Month to date precipitation 0.17  
Year to date precipitation 3.14  
Snow  
Snow 0.00 in 0.10 in 3.40 in (1969)
Month to date snowfall 0.1  
Since 1 July snowfall 6.8  
Snow Depth -    
Sea Level Pressure  
Sea Level Pressure 30.30 in    
Wind  
Wind Speed 21 mph (North)    
Max Wind Speed 33 mph    
Max Gust Speed 44 mph    
Visibility 3 miles    
Events Rain , Snow , Thunderstorm    
T = Trace of Precipitation, MM = Missing Value Source: NWS Daily Summary

Daily Weather History Graph

Daily Weather History Graph

Search for Another Location

Airport:

Trip Planner

Search our weather history database for the weather conditions in past years. The results will help you decide how hot, cold, wet, or windy it might be!

Date:

Astronomy

Mar. 02, 2014 Rise Set
Actual Time 6:59 AM CST 6:27 PM CST
Civil Twilight 6:34 AM CST 6:53 PM CST
Nautical Twilight 6:04 AM CST 7:22 PM CST
Astronomical Twilight 5:35 AM CST 7:52 PM CST
Moon 7:36 AM CST (3/2) 8:19 PM CST (3/2)
Length of Visible Light 12h 18m
Length of Day
11h 27m
Waxing Crescent, 3% of the Moon is Illuminated
Mar 2
Waxing Crescent
Mar 8
First Quarter
Mar 16
Full
Mar 23
Last Quarter
Mar 30
New

Hourly Weather History & Observations

Time (CST) Temp. Windchill Dew Point Humidity Pressure Visibility Wind Dir Wind Speed Gust Speed Precip Events Conditions
12:15 AM 17.6 °F 5.0 °F 17.6 °F 100% 30.20 in 4.0 mi NNE 11.5 mph 19.6 mph N/A Snow Light Snow
12:35 AM 17.6 °F - 17.6 °F 100% 30.20 in 1.8 mi North - - N/A Snow Light Snow
12:55 AM 17.6 °F -0.3 °F 17.6 °F 100% 30.20 in 2.0 mi North 24.2 mph 38.0 mph 0.01 in Rain Light Freezing Rain
1:15 AM 17.6 °F 2.2 °F 17.6 °F 100% 30.19 in 2.0 mi North 17.3 mph 28.8 mph N/A Rain Light Freezing Rain
1:35 AM 15.8 °F -0.6 °F 15.8 °F 100% 30.20 in 3.0 mi NNE 18.4 mph 26.5 mph 0.01 in Rain Light Freezing Rain
1:55 AM 15.8 °F -1.1 °F 15.8 °F 100% 30.20 in 4.0 mi NNE 19.6 mph 28.8 mph 0.01 in Rain Light Freezing Rain
2:15 AM 15.8 °F -2.7 °F 15.8 °F 100% 30.21 in 5.0 mi North 24.2 mph 28.8 mph N/A Rain Light Freezing Rain
2:35 AM 15.8 °F -2.3 °F 15.8 °F 100% 30.22 in 4.0 mi North 23.0 mph 31.1 mph N/A Rain Light Freezing Rain
2:55 AM 15.8 °F -3.1 °F 14.0 °F 93% 30.22 in 5.0 mi North 25.3 mph 38.0 mph N/A Rain Light Freezing Rain
3:15 AM 14.0 °F -7.7 °F 14.0 °F 100% 30.22 in 5.0 mi North 33.4 mph 41.4 mph 0.01 in Snow Light Snow
3:35 AM 14.0 °F -7.4 °F 10.4 °F 86% 30.23 in 9.0 mi North 32.2 mph 43.7 mph 0.02 in Rain Light Freezing Rain
3:55 AM 14.0 °F -7.1 °F 12.2 °F 93% 30.23 in 5.0 mi North 31.1 mph 38.0 mph 0.03 in Snow Light Snow
4:15 AM 14.0 °F -5.1 °F 10.4 °F 86% 30.24 in 9.0 mi North 24.2 mph 36.8 mph 0.01 in Rain Light Freezing Rain
4:35 AM 14.0 °F -5.8 °F 10.4 °F 86% 30.24 in 9.0 mi NNE 26.5 mph 35.7 mph 0.01 in Snow Light Snow
5:15 AM 12.2 °F -4.3 °F 10.4 °F 92% 30.24 in 4.0 mi North 16.1 mph 25.3 mph 0.03 in Snow Light Snow
5:35 AM 10.4 °F -9.9 °F 8.6 °F 92% 30.27 in 5.0 mi North 24.2 mph 33.4 mph 0.15 in Snow Light Snow
5:55 AM 10.4 °F -11.0 °F 8.6 °F 92% 30.29 in 4.0 mi North 27.6 mph 32.2 mph 0.18 in Snow Light Snow
6:15 AM 10.4 °F -9.1 °F 8.6 °F 92% 30.29 in 4.0 mi North 21.9 mph 33.4 mph 0.02 in Snow Light Snow
6:35 AM 10.4 °F -9.9 °F 6.8 °F 85% 30.30 in 5.0 mi North 24.2 mph 29.9 mph 0.05 in Snow Light Snow
6:55 AM 10.4 °F -9.9 °F 8.6 °F 92% 30.29 in 5.0 mi NNE 24.2 mph 29.9 mph 0.08 in Snow Light Snow
7:15 AM 10.4 °F -10.3 °F 8.6 °F 92% 30.28 in 5.0 mi NNE 25.3 mph 32.2 mph 0.04 in Snow Light Snow
7:35 AM 10.4 °F -8.6 °F 8.6 °F 92% 30.31 in 3.0 mi North 20.7 mph 33.4 mph 0.09 in Snow Light Snow
7:55 AM 10.4 °F -8.6 °F 8.6 °F 92% 30.29 in 4.0 mi NNE 20.7 mph 31.1 mph 0.14 in Snow Light Snow
8:15 AM 10.4 °F -9.5 °F 8.6 °F 92% 30.30 in 3.0 mi North 23.0 mph 31.1 mph 0.05 in Snow Light Snow
8:55 AM 10.4 °F -7.2 °F 6.8 °F 85% 30.33 in 3.0 mi North 17.3 mph 25.3 mph 0.19 in Snow Light Snow
9:15 AM 10.4 °F -9.5 °F 6.8 °F 85% 30.33 in 3.0 mi North 23.0 mph 31.1 mph 0.05 in Snow Light Snow
9:35 AM 8.6 °F -12.7 °F 6.8 °F 92% 30.30 in 3.0 mi North 25.3 mph 33.4 mph 0.08 in Snow Light Snow
9:55 AM 8.6 °F -11.9 °F 6.8 °F 92% 30.34 in 3.0 mi North 23.0 mph 31.1 mph 0.10 in Snow Light Snow
10:15 AM 8.6 °F -11.9 °F 6.8 °F 92% 30.31 in 3.0 mi North 23.0 mph 31.1 mph 0.01 in Snow Light Snow
10:35 AM 10.4 °F -9.9 °F 6.8 °F 85% 30.33 in 2.5 mi North 24.2 mph 31.1 mph 0.03 in Snow Light Snow
10:55 AM 10.4 °F -9.9 °F 6.8 °F 85% 30.33 in 4.0 mi North 24.2 mph 31.1 mph 0.05 in Snow Light Snow
11:15 AM 10.4 °F -9.9 °F 6.8 °F 85% 30.32 in 3.0 mi North 24.2 mph 29.9 mph 0.01 in Snow Light Snow
11:35 AM 8.6 °F -12.3 °F 6.8 °F 92% 30.29 in 2.5 mi NNE 24.2 mph 31.1 mph 0.04 in Snow Light Snow
11:55 AM 8.6 °F -11.0 °F 5.0 °F 85% 30.32 in 2.5 mi North 20.7 mph 32.2 mph 0.07 in Snow Light Snow
12:15 PM 10.4 °F -9.5 °F 6.8 °F 85% 30.32 in 1.2 mi North 23.0 mph 27.6 mph 0.03 in Snow Light Snow
12:35 PM 10.4 °F -11.0 °F 6.8 °F 85% 30.28 in 0.5 mi North 27.6 mph 32.2 mph 0.14 in Snow Snow
12:55 PM 10.4 °F -8.6 °F 6.8 °F 85% 30.28 in 0.8 mi North 20.7 mph 33.4 mph 0.22 in Snow Light Snow
1:15 PM 10.4 °F -8.6 °F 6.8 °F 85% 30.28 in 0.5 mi NNE 20.7 mph 26.5 mph 0.05 in Snow , Thunderstorm Snow
1:35 PM 10.4 °F -9.1 °F 6.8 °F 85% 30.26 in 0.5 mi North 21.9 mph 31.1 mph 0.15 in Snow , Thunderstorm Snow
1:55 PM 10.4 °F -8.6 °F 8.6 °F 92% 30.25 in 0.5 mi North 20.7 mph 28.8 mph 0.27 in Snow Snow
2:15 PM 10.4 °F -6.0 °F 6.8 °F 85% 30.29 in 0.8 mi North 15.0 mph 26.5 mph 0.06 in Snow , Thunderstorm Light Snow
2:35 PM 10.4 °F -4.8 °F 8.6 °F 92% 30.30 in 1.2 mi North 12.7 mph 21.9 mph 0.14 in Snow , Thunderstorm Light Snow
2:55 PM 10.4 °F -9.5 °F 8.6 °F 92% 30.27 in 1.5 mi North 23.0 mph 29.9 mph 0.21 in Snow , Thunderstorm Light Snow
3:15 PM 10.4 °F -9.1 °F 6.8 °F 85% 30.28 in 2.0 mi North 21.9 mph 27.6 mph 0.02 in Snow Light Snow
3:35 PM 10.4 °F -7.7 °F 6.8 °F 85% 30.28 in 3.0 mi North 18.4 mph 26.5 mph 0.04 in Snow Light Snow
3:55 PM 10.4 °F -6.6 °F 6.8 °F 85% 30.29 in 2.0 mi North 16.1 mph 26.5 mph 0.09 in Snow Light Snow
4:15 PM 10.4 °F -6.6 °F 6.8 °F 85% 30.31 in 1.5 mi North 16.1 mph 23.0 mph 0.02 in Snow Light Snow
4:35 PM 10.4 °F -7.7 °F 6.8 °F 85% 30.32 in 2.0 mi North 18.4 mph - 0.04 in Snow Light Snow
4:55 PM 8.6 °F -11.0 °F 6.8 °F 92% 30.31 in 1.2 mi North 20.7 mph 27.6 mph 0.07 in Snow Light Snow
5:15 PM 8.6 °F -11.0 °F 5.0 °F 85% 30.30 in 1.5 mi North 20.7 mph 29.9 mph 0.02 in Snow Light Snow
5:35 PM 8.6 °F -11.0 °F 6.8 °F 92% 30.31 in 1.5 mi North 20.7 mph 27.6 mph 0.05 in Snow Light Snow
5:55 PM 8.6 °F -10.0 °F 6.8 °F 92% 30.32 in 3.0 mi North 18.4 mph 28.8 mph 0.07 in Rain Light Freezing Rain
6:15 PM 8.6 °F -11.0 °F 6.8 °F 92% 30.34 in 3.0 mi North 20.7 mph 25.3 mph N/A Rain Light Freezing Rain
6:35 PM 8.6 °F -10.5 °F 6.8 °F 92% 30.36 in 5.0 mi North 19.6 mph - 0.01 in Rain Light Freezing Rain
6:55 PM 8.6 °F -12.3 °F 6.8 °F 92% 30.33 in 1.0 mi North 24.2 mph 34.5 mph 0.21 in Snow Light Snow
7:15 PM 8.6 °F -11.9 °F 6.8 °F 92% 30.35 in 1.5 mi North 23.0 mph 31.1 mph 0.05 in Snow Light Snow
7:35 PM 8.6 °F -13.1 °F 5.0 °F 85% 30.36 in 1.5 mi North 26.5 mph 33.4 mph 0.26 in Snow Light Snow
8:15 PM 6.8 °F -15.1 °F 5.0 °F 92% 30.37 in 1.0 mi North 25.3 mph 38.0 mph 0.16 in Snow Light Snow
8:35 PM 6.8 °F -16.2 °F 5.0 °F 92% 30.37 in 1.2 mi North 28.8 mph 36.8 mph 0.44 in Snow Light Snow
8:55 PM 6.8 °F -13.8 °F 5.0 °F 92% 30.38 in 2.0 mi North 21.9 mph 36.8 mph 0.52 in Snow Light Snow
9:15 PM 6.8 °F -14.7 °F 5.0 °F 92% 30.40 in 3.0 mi North 24.2 mph 32.2 mph N/A Rain Light Freezing Rain
9:35 PM 6.8 °F -14.3 °F 5.0 °F 92% 30.40 in 4.0 mi North 23.0 mph 38.0 mph N/A Rain Light Freezing Rain
9:55 PM 6.8 °F -14.7 °F 5.0 °F 92% 30.41 in 5.0 mi North 24.2 mph 36.8 mph 0.01 in Rain Light Freezing Rain
10:15 PM 6.8 °F -14.7 °F 3.2 °F 85% 30.42 in 3.0 mi North 24.2 mph 38.0 mph N/A Snow Light Snow
10:55 PM 6.8 °F -12.9 °F 5.0 °F 92% 30.43 in 2.5 mi North 19.6 mph 35.7 mph 0.06 in Snow Light Snow
11:55 PM 6.8 °F -12.9 °F 3.2 °F 85% 30.45 in 5.0 mi North 19.6 mph 33.4 mph 0.03 in Rain Light Freezing Rain